Regional Weather Roundup
Issued by NWS

Home | Current Version | Previous Version | Graphics & Text | Print | Product List | Glossary On
Versions: 1 2 3 4 5 6 7 8 9 10 11 12 13 14 15 16 17 18 19 20 21 22 23 24 25 26 27 28 29 30 31 32 33 34 35 36 37 38 39 40 41 42 43 44 45 46 47 48 49 50
000
ASUS43 KLMK 011910
RWRKY
KENTUCKY REGIONAL WEATHER ROUNDUP
NATIONAL WEATHER SERVICE LOUISVILLE KY
300 PM EDT TUE SEP 01 2015

NOTE "FAIR" INDICATES FEW OR NO CLOUDS BELOW 12,000 FEET
WITH NO SIGNIFICANT WEATHER AND/OR OBSTRUCTIONS TO VISIBILITY.

KYZ001>023-026-027-061>063-070>075-012000-
WESTERN AND SOUTH CENTRAL KENTUCKY

CITY           SKY/WX    TMP DP  RH WIND       PRES   REMARKS
PADUCAH        SUNNY     89  68  49 SE6       30.10F HX  93
HENDERSON      PTSUNNY   90  66  45 SW3       30.09S HX  92
OWENSBORO      MOSUNNY   88  68  51 S7        30.10F HX  91
HOPKINSVILLE   MOSUNNY   88  65  47 NW1       30.11S
BOWLING GREEN  SUNNY     91  63  39 CALM      30.11F HX  92
GLASGOW        SUNNY     88  63  42 E3        30.12F
$$

KYZ024-025-028>034-038-045-046-053-012000-
NORTH CENTRAL KENTUCKY

CITY           SKY/WX    TMP DP  RH WIND       PRES   REMARKS
LOUISVILLE/SDF PTSUNNY   88  64  44 W5        30.10F
LOUISVILLE/LOU PTSUNNY   87  65  47 W6        30.11F
FORT KNOX      PTSUNNY   88  64  45 S6        30.10F
$$

KYZ035>037-039>044-047>052-055>060-089>105-012000-
NORTHEAST KENTUCKY

CITY           SKY/WX    TMP DP  RH WIND       PRES   REMARKS
LEXINGTON      SUNNY     88  62  41 NW8       30.14F
COVINGTON      PTSUNNY   87  65  47 SW8       30.12F
FRANKFORT      MOSUNNY   87  64  46 VRB5      30.12F
$$

KYZ054-064>069-076>088-106>120-012000-
SOUTHEAST KENTUCKY

CITY           SKY/WX    TMP DP  RH WIND       PRES   REMARKS
JACKSON        PTSUNNY   84  67  56 CALM      30.16F
LONDON         MOSUNNY   86  58  38 E6        30.15S
SOMERSET       MOSUNNY   84  61  45 NE3       30.14F
MIDDLESBORO    SUNNY     86  63  46 CALM      30.14S
MONTICELLO     CLEAR     89  68  49 CALM      30.16F HX  92
$$




USA.gov is the U.S. government's official web portal to all federal, state and local government web resources and services.